{"data":{"norad_id":65235,"intl_designator":"2025-179A","name":"STARLINK-34842","alt_names":[],"object_type":"PAYLOAD","status":"ACTIVE","operator":null,"country":"US","launch_date":"2025-08-18","launch_site_code":"AFWTR","launch_vehicle":null,"mission":null,"orbit_class":"UNKNOWN","rcs_meters":null,"size_class":null,"mass_kg":null,"dimensions":null,"purposes":["comms"],"wikipedia_slug":null,"has_3d_model":false,"image_url":null,"decayed_at":null,"tle_current":{"epoch":"2026-09-20T13:27:04.823136Z","epoch_age_seconds":112374,"freshness":"FRESH","line1":"1 65235U 25179A   26263.56047249  .00009660  00000+0  30109-3 0  9997","line2":"2 65235  97.2851 302.9077 0000961  96.0325 264.1027 15.33452557 61384","mean_motion":15.33452557,"eccentricity":9.61e-5,"inclination_deg":97.2851,"raan_deg":302.9077,"arg_perigee_deg":96.0325,"mean_anomaly_deg":264.1027,"bstar":0.00030109,"rev_number":6138,"period_min":93.90574187813,"perigee_km":464.86301475124,"apogee_km":466.1783657593,"semimajor_km":6843.6576902553,"source":"CELESTRAK","updated_at":"2026-09-21T09:00:35.539397Z"}}}